Regional Weather Roundup
Issued by NWS

Home | Current Version | Previous Version | Text Only | Print | Product List | Glossary Off
Versions: 1 2 3 4 5 6 7 8 9 10 11 12 13 14 15 16 17 18 19 20 21 22 23 24 25 26 27

000
ASUS45 KCYS 240110
RWRWY

WYOMING REGIONAL WEATHER ROUNDUP
NATIONAL WEATHER SERVICE CHEYENNE WY
700 PM MDT TUE MAY 23 2017

NOTE:  "FAIR" INDICATES FEW OR NO CLOUDS BELOW 12,000 FEET
WITH NO SIGNIFICANT WEATHER AND/OR OBSTRUCTIONS TO VISIBILITY.

WYZ001-240200-
YELLOWSTONE NATIONAL PARK

CITY           SKY/WX    TMP DP  RH WIND       PRES   REMARKS
LK YELLOWSTONE   N/A     60  35  39 VRB6      30.19F
W YELLOWSTONE  NOT AVBL

$$
WYZ002>013-054>058-071-098>099-240200-
NORTHERN WYOMING

CITY           SKY/WX    TMP DP  RH WIND       PRES   REMARKS
JACKSON        SUNNY     66  34  30 W12G23    30.12F
CODY           FAIR      68  37  32 SE12      30.00F
GREYBULL       FAIR      72  27  18 E3        29.96F
WORLAND        FAIR      69  26  20 VRB3      29.99F
SHERIDAN       FAIR      62  37  39 SE7       30.00F
BUFFALO        FAIR      61  33  35 SE8       30.06F
GILLETTE       FAIR      58  46  64 CALM      30.05F
HULETT         FAIR      59  32  36 NE5       30.06F
NEWCASTLE      FAIR      59  30  33 N7        30.06S

$$
WYZ014>020-022>026-101>103-240200-
CENTRAL WYOMING

CITY           SKY/WX    TMP DP  RH WIND       PRES   REMARKS
BIG PINEY      PTSUNNY   65  34  31 NW10      30.15F
PINEDALE       FAIR      64  30  27 NW15G22   30.15S
DUBOIS         FAIR      63  28  27 NW14G23   30.12F
LANDER         FAIR      63  31  30 SE7       30.05
RIVERTON       FAIR      64  29  26 SE6       30.06F
CASPER         FAIR      59  39  47 S3        30.08F
DOUGLAS        FAIR      57  35  43 N6        30.09F

$$
WYZ021-027>030-104>119-240200-
SOUTHERN WYOMING

CITY           SKY/WX    TMP DP  RH WIND       PRES   REMARKS
EVANSTON       FAIR      66  37  34 W14       30.19S
KEMMERER         N/A     64  34  32 W20G28    30.19F
FORT BRIDGER   FAIR      69  31  24 NW15G25   30.20F
ROCK SPRINGS   FAIR      67  32  27 SW12      30.13F
DIXON            N/A     60  32  34 S5        30.18F
RAWLINS        FAIR      62  16  16 NW13      30.14F
SARATOGA       FAIR      59  25  27 NW12      30.16F
LARAMIE        FAIR      52  28  39 NW17      30.14F
CHEYENNE       FAIR      54  30  40 N17       30.10F
TORRINGTON     FAIR      61  29  29 N13       30.04S
PINE BLUFFS    FAIR      57  30  35 N16G24    30.08F

$$




USA.gov is the U.S. government's official web portal to all federal, state and local government web resources and services.